Show Low, AZ

3:51 PM MST on July 28, 2016 (GMT -0700)
Show Low Municipal

Weather History for KSOW - August, 2014

Change the Weather History Date:

Sunday, August 31, 2014

  Actual Average Record
Temperature  
Mean Temperature 68 °F -  
Max Temperature 80 °F 78 °F 89 °F (1975)
Min Temperature 57 °F 59 °F 45 °F (1973)
Cooling Degree Days 4    
Growing Degree Days 18 (Base 50)    
Moisture  
Dew Point 37 °F    
Average Humidity 34    
Maximum Humidity 48    
Minimum Humidity 17    
Precipitation  
Precipitation 0.00 in - - ()
Sea Level Pressure  
Sea Level Pressure 30.21 in    
Wind  
Wind Speed 11 mph (SSW)    
Max Wind Speed 24 mph    
Max Gust Speed 32 mph    
Visibility 10 miles    
Events      
Averages and records for this station are not official NWS values.
T = Trace of Precipitation, MM = Missing Value Source: NWS Daily Summary

Daily Weather History Graph

Daily Weather History Graph

Search for Another Location

Airport or City:

Trip Planner

Search our weather history database for the weather conditions in past years. The results will help you decide how hot, cold, wet, or windy it might be!

Date:

Astronomy

Aug. 31, 2014 Rise Set
Actual Time 5:52 AM MST 6:47 PM MST
Civil Twilight 5:27 AM MST 7:12 PM MST
Nautical Twilight 4:56 AM MST 7:43 PM MST
Astronomical Twilight 4:25 AM MST 8:14 PM MST
Moon 11:26 AM MST (8/31) 10:21 PM MST (8/31)
Length of Visible Light 13h 45m
Length of Day
12h 54m
Waxing Crescent, 33% of the Moon is Illuminated
Aug 31
Waxing Crescent
Sep 2
First Quarter
Sep 8
Full
Sep 15
Last Quarter
Sep 23
New

Hourly Weather History & Observations

Time (MST) Temp. Dew Point Humidity Pressure Visibility Wind Dir Wind Speed Gust Speed Precip Events Conditions
12:15 AM 59.0 °F 37.4 °F 45% 30.20 in 10.0 mi South 8.1 mph - N/A   Clear
12:35 AM 59.0 °F 37.4 °F 45% 30.20 in 10.0 mi South 8.1 mph - N/A   Clear
12:55 AM 60.8 °F 37.4 °F 42% 30.20 in 10.0 mi South 10.4 mph - N/A   Clear
1:15 AM 60.8 °F 37.4 °F 42% 30.19 in 10.0 mi South 10.4 mph - N/A   Clear
1:35 AM 62.6 °F 37.4 °F 39% 30.20 in 10.0 mi South 10.4 mph - N/A   Clear
1:55 AM 60.8 °F 37.4 °F 42% 30.20 in 10.0 mi South 9.2 mph - N/A   Clear
2:15 AM 59.0 °F 37.4 °F 45% 30.20 in 10.0 mi South 10.4 mph - N/A   Clear
2:35 AM 60.8 °F 37.4 °F 42% 30.20 in 10.0 mi South 9.2 mph - N/A   Clear
2:55 AM 60.8 °F 37.4 °F 42% 30.20 in 10.0 mi South 10.4 mph - N/A   Clear
3:15 AM 59.0 °F 37.4 °F 45% 30.20 in 10.0 mi South 9.2 mph - N/A   Clear
3:35 AM 59.0 °F 35.6 °F 42% 30.20 in 10.0 mi South 9.2 mph - N/A   Clear
3:55 AM 59.0 °F 37.4 °F 45% 30.20 in 10.0 mi South 9.2 mph - N/A   Clear
4:15 AM 59.0 °F 37.4 °F 45% 30.20 in 10.0 mi South 9.2 mph - N/A   Clear
4:35 AM 57.2 °F 37.4 °F 48% 30.21 in 10.0 mi South 9.2 mph - N/A   Clear
4:55 AM 57.2 °F 37.4 °F 48% 30.22 in 10.0 mi SSW 6.9 mph - N/A   Clear
5:15 AM 57.2 °F 37.4 °F 48% 30.22 in 10.0 mi South 6.9 mph - N/A   Clear
5:35 AM 57.2 °F 37.4 °F 48% 30.22 in 10.0 mi South 11.5 mph - N/A   Clear
5:55 AM 59.0 °F 37.4 °F 45% 30.22 in 10.0 mi South 10.4 mph - N/A   Clear
6:15 AM 59.0 °F 37.4 °F 45% 30.23 in 10.0 mi South 10.4 mph - N/A   Clear
6:35 AM 60.8 °F 37.4 °F 42% 30.23 in 10.0 mi South 8.1 mph - N/A   Clear
6:55 AM 62.6 °F 39.2 °F 42% 30.23 in 10.0 mi South 8.1 mph - N/A   Clear
7:15 AM 64.4 °F 39.2 °F 40% 30.24 in 10.0 mi South 6.9 mph - N/A   Clear
7:35 AM 64.4 °F 41.0 °F 42% 30.24 in 10.0 mi South 5.8 mph - N/A   Clear
7:55 AM 68.0 °F 39.2 °F 35% 30.24 in 10.0 mi SSW 8.1 mph - N/A   Clear
8:15 AM 68.0 °F 39.2 °F 35% 30.24 in 10.0 mi SSW 10.4 mph - N/A   Clear
8:35 AM 71.6 °F 39.2 °F 31% 30.25 in 10.0 mi SSW 11.5 mph - N/A   Clear
8:55 AM 71.6 °F 39.2 °F 31% 30.25 in 10.0 mi SW 11.5 mph - N/A   Clear
9:15 AM 73.4 °F 39.2 °F 29% 30.26 in 10.0 mi SW 12.7 mph - N/A   Clear
9:35 AM 73.4 °F 39.2 °F 29% 30.26 in 10.0 mi SW 13.8 mph - N/A   Clear
9:55 AM 75.2 °F 39.2 °F 27% 30.26 in 10.0 mi SW 13.8 mph 19.6 mph N/A   Clear
10:15 AM 75.2 °F 39.2 °F 27% 30.26 in 10.0 mi SW 13.8 mph 17.3 mph N/A   Clear
10:35 AM 75.2 °F 39.2 °F 27% 30.25 in 10.0 mi SW 16.1 mph - N/A   Clear
10:55 AM 77.0 °F 37.4 °F 24% 30.24 in 10.0 mi SW 18.4 mph 25.3 mph N/A   Clear
11:15 AM 77.0 °F 37.4 °F 24% 30.24 in 10.0 mi SW 17.3 mph 31.1 mph N/A   Clear
11:35 AM 77.0 °F 35.6 °F 22% 30.24 in 10.0 mi SSW 23.0 mph 31.1 mph N/A   Clear
11:55 AM 77.0 °F 35.6 °F 22% 30.24 in 10.0 mi SSW 20.7 mph 32.2 mph N/A   Clear
12:15 PM 77.0 °F 32.0 °F 19% 30.23 in 10.0 mi SSW 21.9 mph 29.9 mph N/A   Clear
12:35 PM 78.8 °F 30.2 °F 17% 30.23 in 10.0 mi SW 24.2 mph 29.9 mph N/A   Clear
12:55 PM 78.8 °F 32.0 °F 18% 30.23 in 10.0 mi SSW 19.6 mph 27.6 mph N/A   Clear
1:15 PM 80.6 °F 35.6 °F 20% 30.22 in 10.0 mi SW 20.7 mph 28.8 mph N/A   Clear
1:35 PM 78.8 °F 33.8 °F 20% 30.21 in 10.0 mi SW 21.9 mph - N/A   Clear
1:55 PM 80.6 °F 35.6 °F 20% 30.21 in 10.0 mi WSW 17.3 mph 27.6 mph N/A   Clear
2:15 PM 80.6 °F 33.8 °F 18% 30.20 in 10.0 mi SW 16.1 mph 29.9 mph N/A   Clear
2:35 PM 80.6 °F 35.6 °F 20% 30.19 in 10.0 mi WSW 13.8 mph 26.5 mph N/A   Clear
2:55 PM 80.6 °F 35.6 °F 20% 30.19 in 10.0 mi South 19.6 mph 25.3 mph N/A   Clear
3:15 PM 80.6 °F 35.6 °F 20% 30.18 in 10.0 mi SSW 15.0 mph 25.3 mph N/A   Clear
3:35 PM 80.6 °F 37.4 °F 21% 30.18 in 10.0 mi WSW 18.4 mph 23.0 mph N/A   Clear
3:55 PM 80.6 °F 37.4 °F 21% 30.18 in 10.0 mi SW 13.8 mph 19.6 mph N/A   Clear
4:15 PM 78.8 °F 37.4 °F 23% 30.17 in 10.0 mi SSW 16.1 mph 24.2 mph N/A   Clear
4:35 PM 78.8 °F 37.4 °F 23% 30.17 in 10.0 mi SW 15.0 mph 24.2 mph N/A   Clear
4:55 PM 78.8 °F 37.4 °F 23% 30.17 in 10.0 mi SSW 13.8 mph 24.2 mph N/A   Clear
5:15 PM 77.0 °F 39.2 °F 26% 30.17 in 10.0 mi SW 16.1 mph 21.9 mph N/A   Clear
5:35 PM 77.0 °F 39.2 °F 26% 30.17 in 10.0 mi SSW 17.3 mph 23.0 mph N/A   Clear
5:55 PM 77.0 °F 39.2 °F 26% 30.16 in 10.0 mi SSW 16.1 mph - N/A   Clear
6:15 PM 75.2 °F 39.2 °F 27% 30.16 in 10.0 mi SSW 16.1 mph - N/A   Clear
6:35 PM 73.4 °F 39.2 °F 29% 30.17 in 10.0 mi SW 11.5 mph - N/A   Clear
6:55 PM 71.6 °F 39.2 °F 31% 30.17 in 10.0 mi SSW 10.4 mph - N/A   Clear
7:15 PM 71.6 °F 37.4 °F 29% 30.18 in 10.0 mi SSW 10.4 mph - N/A   Clear
7:35 PM 69.8 °F 37.4 °F 31% 30.18 in 10.0 mi SSW 9.2 mph - N/A   Clear
7:55 PM 68.0 °F 37.4 °F 33% 30.19 in 10.0 mi South 8.1 mph - N/A   Clear
8:15 PM 66.2 °F 37.4 °F 35% 30.19 in 10.0 mi South 9.2 mph - N/A   Clear
8:35 PM 66.2 °F 37.4 °F 35% 30.20 in 10.0 mi South 6.9 mph - N/A   Clear
8:55 PM 62.6 °F 37.4 °F 39% 30.20 in 10.0 mi South 6.9 mph - N/A   Clear
9:15 PM 62.6 °F 37.4 °F 39% 30.21 in 10.0 mi South 6.9 mph - N/A   Clear
9:35 PM 60.8 °F 39.2 °F 45% 30.22 in 10.0 mi South 6.9 mph - N/A   Clear
9:55 PM 60.8 °F 37.4 °F 42% 30.22 in 10.0 mi South 6.9 mph - N/A   Clear
10:15 PM 60.8 °F 37.4 °F 42% 30.22 in 10.0 mi SSW 6.9 mph - N/A   Clear
10:35 PM 60.8 °F 37.4 °F 42% 30.22 in 10.0 mi South 9.2 mph - N/A   Clear
10:55 PM 60.8 °F 37.4 °F 42% 30.22 in 10.0 mi South 8.1 mph - N/A   Clear
11:15 PM 60.8 °F 37.4 °F 42% 30.22 in 10.0 mi South 8.1 mph - N/A   Clear
11:35 PM 59.0 °F 37.4 °F 45% 30.22 in 10.0 mi South 9.2 mph - N/A   Clear
11:55 PM 59.0 °F 37.4 °F 45% 30.22 in 10.0 mi South 9.2 mph - N/A   Clear